User: anonymous   Login
Location: Unspecified
(0.0000°N, 0.0000°E)
Time: 01:52:59
(UTC+00:00)
Language:

QIANFAN-96 - Orbit

View from above orbital plane
View from above orbital plane
View from above satellite
View from above satellite

Ground track
Ground track

The orbit is defined by the following mean orbital elements,

1 66038U          26145.43301657 +.00000000 +00000-0 +18188-3 0 00002
2 66038  89.0022  45.5020 0002062  66.9606 293.1763 13.51006546    07
Epoch (UTC): 25 May 2026 10:23:32
Eccentricity: 0.0002062
inclination: 89.0022°
perigee height: 1067 km
apogee height: 1070 km
right ascension of ascending node: 45.5020°
argument of perigee: 66.9606°
revolutions per day: 13.51006546
mean anomaly at epoch: 293.1763°

The dashed part of the orbit path shows where the satellite is in the earth's shadow,  

DLR